GW2075 Weather Reports


Display with metric or nautical units.
time (UTC)temp
F
wind
direction
speed
MPH
gust
MPH
rain 1hr
in
rain 24hr
in
rain mn
in
humidity
%
barometer
mb
20260507081508 51 10 3.0 3.0 0.00 0.04 0.04 89 1012.9
20260507081005 51 355 2.0 3.0 0.00 0.04 0.04 90 1012.5
20260507080500 50 18 1.0 2.0 0.00 0.04 0.04 93 1012.7
20260507075956 50 34 1.0 2.0 0.00 0.04 0.04 95 1012.6
20260507075452 51 342 1.0 2.0 0.00 0.04 0.04 96 1012.7
20260507074949 51 352 0.0 1.0 0.00 0.04 0.04 97 1012.7
20260507074446 51 355 1.0 1.0 0.00 0.04 0.04 97 1012.7
20260507073944 51 354 0.0 0.0 0.00 0.04 0.04 97 1012.6
20260507073440 52 352 2.0 3.0 0.00 0.04 0.04 97 1012.6
20260507072936 52 11 0.0 0.0 0.00 0.04 0.04 97 1012.7
20260507072434 51 354 0.0 0.0 0.00 0.04 0.04 97 1013.1
20260507071932 51 354 0.0 0.0 0.00 0.04 0.04 97 1013.0
20260507071428 51 353 0.0 0.0 0.00 0.04 0.04 97 1012.7
20260507070925 51 354 0.0 0.0 0.00 0.04 0.04 97 1013.0
20260507070422 51 354 0.0 0.0 0.00 0.04 0.04 97 1013.1
20260507065919 52 354 0.0 0.0 0.00 0.04 0.04 97 1012.9
20260507065415 52 353 0.0 0.0 0.00 0.04 0.04 97 1013.3
20260507064907 52 354 0.0 0.0 0.00 0.04 0.04 96 1012.9
20260507064405 52 354 0.0 0.0 0.00 0.04 0.04 96 1013.0
20260507063903 52 356 0.0 0.0 0.00 0.04 0.04 96 1012.8
20260507063400 52 354 0.0 0.0 0.00 0.04 0.04 96 1012.9
20260507062857 52 354 0.0 0.0 0.00 0.04 0.04 96 1013.2
20260507062353 52 355 0.0 0.0 0.05 0.04 0.04 96 1013.1
20260507061851 52 355 0.0 0.0 0.05 0.04 0.04 95 1013.1
20260507061349 52 356 0.0 0.0 0.00 0.03 0.03 95 1013.0
20260507060847 52 354 0.0 0.0 0.00 0.03 0.03 95 1013.3
20260507060343 52 354 0.0 0.0 0.07 0.03 0.03 94 1013.1
20260507055840 52 354 0.0 0.0 0.07 0.03 0.03 94 1013.0
20260507055335 52 353 0.0 0.0 0.00 0.02 0.02 93 1013.2
20260507054833 52 352 0.0 0.0 0.00 0.02 0.02 93 1012.9
20260507054328 52 354 0.0 0.0 0.00 0.02 0.02 92 1013.1
20260507053826 52 353 0.0 0.0 0.00 0.02 0.02 92 1013.1
20260507053324 52 356 0.0 0.0 0.00 0.02 0.02 92 1012.8
20260507052822 53 44 0.0 1.0 0.00 0.02 0.02 92 1012.7
20260507052319 53 0 1.0 1.0 0.00 0.02 0.02 91 1012.9
20260507051816 53 10 1.0 1.0 0.00 0.02 0.02 91 1012.8
20260507051314 53 335 2.0 6.0 0.00 0.02 0.02 92 1012.9
20260507050810 53 12 1.0 2.0 0.00 0.02 0.02 93 1012.9
20260507050306 53 40 0.0 3.0 0.00 0.02 0.02 94 1012.8
20260507045804 53 5 1.0 1.0 0.00 0.02 0.02 95 1012.8
20260507045300 53 7 0.0 0.0 0.00 0.02 0.02 95 1013.0
20260507044757 53 357 0.0 0.0 0.00 0.02 0.02 95 1012.9
20260507044253 53 349 0.0 1.0 0.00 0.02 0.02 95 1013.2
20260507043750 54 348 0.0 1.0 0.00 0.02 0.02 95 1013.0
20260507043247 54 349 0.0 0.0 0.00 0.02 0.02 95 1013.0
20260507042743 54 347 0.0 0.0 0.00 0.02 0.02 94 1012.8
20260507042238 54 352 0.0 0.0 0.00 0.02 0.02 94 1012.9
20260507041736 54 348 0.0 0.0 0.05 0.02 0.02 93 1012.8
20260507041232 55 338 1.0 2.0 0.12 0.02 0.02 92 1013.0
20260507040729 55 355 1.0 2.0 0.07 0.01 0.01 91 1012.6
20260507040225 55 348 0.0 1.0 0.05 0.00 0.00 90 1012.6
20260507035721 56 317 3.0 6.0 0.12 0.27 0.27 90 1012.2
20260507035217 56 347 1.0 2.0 0.05 0.25 0.25 89 1012.6
20260507034715 56 359 1.0 2.0 0.05 0.25 0.25 88 1012.3
20260507034212 56 348 0.0 1.0 0.00 0.24 0.24 88 1012.6
20260507033710 57 350 0.0 1.0 0.00 0.24 0.24 87 1012.6
20260507033207 57 327 1.0 5.0 0.00 0.24 0.24 87 1012.5
20260507032704 57 326 2.0 3.0 0.00 0.24 0.24 87 1012.5
20260507032200 57 307 4.0 6.0 0.00 0.24 0.24 86 1012.8
20260507031657 57 326 4.0 5.0 0.00 0.24 0.24 86 1012.5
20260507031154 57 337 2.0 3.0 0.00 0.24 0.24 85 1012.5
20260507030650 57 349 2.0 5.0 0.00 0.24 0.24 85 1013.0
20260507030148 57 350 1.0 5.0 0.00 0.24 0.24 85 1012.3
20260507025645 58 287 5.0 7.0 0.00 0.24 0.24 85 1012.2
20260507025142 58 293 6.0 7.0 0.00 0.24 0.24 85 1012.0
20260507024640 58 272 3.0 7.0 0.00 0.24 0.24 85 1012.0
20260507024137 58 320 3.0 5.0 0.00 0.24 0.24 84 1012.0
20260507023632 59 296 1.0 3.0 0.00 0.24 0.24 84 1012.3
20260507023130 59 312 3.0 3.0 0.00 0.24 0.24 83 1012.4
20260507022627 59 1 0.0 2.0 0.00 0.24 0.24 83 1012.4
20260507022122 59 346 1.0 5.0 0.00 0.24 0.24 83 1012.3
20260507021619 59 307 3.0 5.0 0.00 0.24 0.24 83 1012.1
20260507021115 59 3 2.0 7.0 0.00 0.24 0.24 83 1012.1
20260507020613 59 305 3.0 3.0 0.00 0.24 0.24 84 1011.9
20260507020109 60 314 2.0 5.0 0.00 0.24 0.24 84 1012.0
20260507015608 60 336 3.0 5.0 0.00 0.24 0.24 84 1012.0
20260507015104 60 347 2.0 5.0 0.00 0.24 0.24 84 1011.8
20260507014601 60 312 3.0 6.0 0.00 0.24 0.24 85 1012.0
20260507014057 60 335 3.0 5.0 0.00 0.24 0.24 86 1012.1
20260507013554 60 6 0.0 1.0 0.00 0.24 0.24 87 1012.1
20260507013051 60 342 1.0 2.0 0.00 0.24 0.24 87 1012.1
20260507012548 60 349 0.0 1.0 0.00 0.24 0.24 87 1012.0
20260507012043 60 15 0.0 1.0 0.00 0.24 0.24 87 1011.9
20260507011541 60 337 0.0 1.0 0.00 0.24 0.24 87 1012.3
20260507011032 61 354 0.0 3.0 0.00 0.24 0.24 88 1011.9
20260507010526 61 16 7.0 9.0 0.00 0.24 0.24 88 1012.1
20260507010023 61 343 1.0 2.0 0.00 0.24 0.24 88 1011.8
20260507005520 62 350 1.0 2.0 0.00 0.24 0.24 88 1012.0
20260507005016 62 252 3.0 3.0 0.00 0.24 0.24 88 1012.0
20260507004513 62 350 1.0 1.0 0.00 0.24 0.24 89 1011.7
20260507004006 62 316 3.0 7.0 0.00 0.24 0.24 89 1012.0
20260507003501 62 309 2.0 3.0 0.00 0.24 0.24 90 1011.8
20260507002956 62 352 0.0 1.0 0.00 0.24 0.24 89 1011.5
20260507002453 63 356 1.0 2.0 0.00 0.24 0.24 88 1011.3
20260507001950 63 304 3.0 5.0 0.00 0.24 0.24 87 1011.3
20260507001446 63 337 2.0 5.0 0.00 0.24 0.24 87 1011.6
20260507000944 64 329 3.0 5.0 0.00 0.24 0.24 87 1011.3
20260507000439 64 344 2.0 3.0 0.00 0.24 0.24 88 1011.4
20260506235935 64 282 3.0 3.0 0.00 0.24 0.24 89 1010.8
20260506235432 64 329 1.0 2.0 0.00 0.24 0.24 89 1010.6
20260506234927 64 326 1.0 3.0 0.00 0.24 0.24 91 1010.1
20260506234426 64 288 5.0 6.0 0.00 0.24 0.24 93 1010.4
20260506233923 64 343 1.0 2.0 0.00 0.24 0.24 94 1010.3
20260506233420 64 339 1.0 6.0 0.00 0.24 0.24 94 1010.6
20260506232916 64 340 1.0 5.0 0.00 0.24 0.24 94 1010.4
20260506232413 65 342 0.0 2.0 0.00 0.24 0.24 94 1010.3
20260506231908 65 306 2.0 2.0 0.00 0.24 0.24 94 1010.1
20260506231406 65 340 0.0 1.0 0.00 0.24 0.24 93 1010.2
20260506230903 65 332 2.0 2.0 0.00 0.24 0.24 93 1009.9
20260506230400 65 314 2.0 2.0 0.00 0.24 0.24 93 1009.8
20260506225856 65 299 1.0 3.0 0.00 0.24 0.24 93 1010.0
20260506225353 65 224 3.0 6.0 0.00 0.24 0.24 93 1009.9
20260506224850 65 310 2.0 2.0 0.00 0.24 0.24 93 1010.0
20260506224348 65 322 1.0 5.0 0.00 0.24 0.24 93 1010.0
20260506223844 65 312 3.0 5.0 0.00 0.24 0.24 93 1009.8
20260506223339 65 19 3.0 5.0 0.00 0.24 0.24 93 1010.0
20260506222836 65 315 3.0 6.0 0.00 0.24 0.24 93 1009.8
20260506222331 65 304 1.0 5.0 0.00 0.24 0.24 92 1009.9
20260506221825 66 235 3.0 6.0 0.00 0.24 0.24 91 1009.9
20260506221322 66 310 2.0 6.0 0.00 0.24 0.24 91 1010.1
20260506220819 66 300 2.0 6.0 0.00 0.24 0.24 90 1010.1
20260506220314 66 212 3.0 5.0 0.00 0.24 0.24 90 1009.7
20260506215811 66 307 1.0 5.0 0.00 0.24 0.24 90 1009.7
20260506215307 66 286 5.0 6.0 0.00 0.24 0.24 90 1009.8
20260506214803 66 219 2.0 7.0 0.00 0.24 0.24 90 1009.6
20260506214300 66 199 4.0 6.0 0.00 0.24 0.24 90 1009.7
20260506213758 66 290 3.0 3.0 0.00 0.24 0.24 90 1009.7
20260506213254 66 263 3.0 6.0 0.00 0.24 0.24 89 1009.6
20260506212752 66 220 3.0 5.0 0.00 0.24 0.24 89 1009.6
20260506212248 66 282 2.0 5.0 0.00 0.24 0.24 89 1009.2
20260506211743 66 248 5.0 8.0 0.00 0.24 0.24 89 1009.3
20260506211240 66 243 4.0 6.0 0.00 0.24 0.24 89 1009.5
20260506210737 66 274 2.0 6.0 0.00 0.24 0.24 89 1009.2
20260506210233 67 219 3.0 3.0 0.00 0.24 0.24 89 1009.1
20260506205730 67 195 3.0 3.0 0.00 0.24 0.24 89 1009.1
20260506205225 67 294 2.0 3.0 0.00 0.24 0.24 89 1009.1
20260506204718 66 221 3.0 5.0 0.00 0.24 0.24 89 1009.0
20260506204215 66 311 3.0 5.0 0.00 0.24 0.24 89 1009.0
20260506203713 66 209 4.0 6.0 0.00 0.24 0.24 89 1009.1
20260506203210 66 240 5.0 7.0 0.00 0.24 0.24 89 1009.2
20260506202708 66 281 3.0 7.0 0.00 0.24 0.24 89 1009.5
20260506202203 67 275 2.0 3.0 0.00 0.24 0.24 89 1009.1
20260506201701 66 206 2.0 6.0 0.00 0.24 0.24 89 1009.0
20260506201156 66 237 4.0 7.0 0.00 0.24 0.24 88 1008.9
20260506200654 67 220 8.0 9.0 0.00 0.24 0.24 88 1009.1
20260506200150 67 195 7.0 8.0 0.00 0.24 0.24 88 1009.3
20260506195647 67 285 3.0 9.0 0.00 0.24 0.24 88 1009.2
20260506195143 67 306 5.0 7.0 0.00 0.24 0.24 88 1009.1
20260506194641 67 297 4.0 8.0 0.00 0.24 0.24 88 1009.1
20260506194137 67 195 5.0 8.0 0.00 0.24 0.24 88 1009.1
20260506193635 67 267 6.0 8.0 0.00 0.24 0.24 88 1009.4
20260506193132 67 219 5.0 7.0 0.00 0.24 0.24 88 1009.0
20260506192628 66 254 4.0 9.0 0.00 0.24 0.24 88 1009.0
20260506192124 66 238 4.0 10.0 0.00 0.24 0.24 89 1009.1
20260506191621 66 250 5.0 7.0 0.00 0.24 0.24 89 1009.2
20260506191117 65 286 3.0 5.0 0.00 0.24 0.24 90 1009.4
20260506190615 65 294 3.0 3.0 0.00 0.24 0.24 90 1009.2
20260506190112 65 228 4.0 6.0 0.00 0.24 0.24 90 1009.4
20260506185609 65 237 3.0 5.0 0.00 0.24 0.24 90 1009.5
20260506185105 65 251 3.0 3.0 0.00 0.24 0.24 90 1009.4
20260506184602 65 231 5.0 7.0 0.00 0.24 0.24 89 1009.4
20260506184100 66 236 5.0 6.0 0.00 0.24 0.24 89 1009.5
20260506183556 66 271 4.0 7.0 0.00 0.24 0.24 89 1009.5
20260506183052 66 302 6.0 10.0 0.00 0.24 0.24 88 1009.4
20260506182550 65 245 5.0 7.0 0.00 0.24 0.24 89 1009.5
20260506182047 65 255 10.0 15.0 0.00 0.24 0.24 89 1009.7
20260506181545 65 204 3.0 9.0 0.00 0.24 0.24 89 1009.4
20260506181041 66 209 3.0 3.0 0.00 0.24 0.24 89 1009.7
20260506180538 65 214 7.0 7.0 0.00 0.24 0.24 89 1009.4
20260506180035 65 252 5.0 10.0 0.00 0.24 0.24 90 1009.5
20260506175531 64 239 5.0 8.0 0.00 0.24 0.24 90 1009.4
20260506175027 64 216 9.0 13.0 0.00 0.24 0.24 89 1009.5
20260506174526 65 308 4.0 11.0 0.00 0.24 0.24 90 1009.7
20260506174022 64 252 5.0 9.0 0.00 0.24 0.24 90 1009.6
20260506173520 63 112 4.0 7.0 0.00 0.24 0.24 92 1009.5
20260506173016 63 238 9.0 15.0 0.00 0.24 0.24 92 1009.6
20260506172513 62 225 9.0 14.0 0.00 0.24 0.24 93 1009.6
20260506172004 62 214 6.0 7.0 0.00 0.24 0.24 93 1009.8
20260506171502 63 226 8.0 11.0 0.00 0.24 0.24 93 1009.7
20260506170959 62 181 6.0 9.0 0.00 0.24 0.24 93 1009.7
20260506170455 62 254 3.0 6.0 0.00 0.24 0.24 93 1009.9
20260506165948 62 286 7.0 9.0 0.00 0.24 0.24 93 1009.6
20260506165446 62 192 10.0 16.0 0.00 0.24 0.24 94 1009.6
20260506164941 62 181 6.0 10.0 0.00 0.24 0.24 94 1009.8
20260506164438 61 220 6.0 11.0 0.00 0.24 0.24 94 1009.6
20260506163936 61 165 6.0 10.0 0.00 0.24 0.24 95 1009.7
20260506163431 61 181 7.0 9.0 0.00 0.24 0.24 95 1009.9
20260506162926 61 217 5.0 8.0 0.00 0.24 0.24 95 1009.8
20260506162424 61 279 4.0 11.0 0.00 0.24 0.24 95 1009.7
20260506161921 61 292 4.0 11.0 0.00 0.24 0.24 96 1009.8
20260506161419 61 270 6.0 10.0 0.00 0.24 0.24 96 1009.8
20260506160911 60 224 5.0 13.0 0.00 0.24 0.24 96 1009.7
20260506160408 60 217 9.0 13.0 0.00 0.24 0.24 97 1009.9
20260506155906 60 190 3.0 9.0 0.00 0.24 0.24 97 1009.9
20260506155403 60 267 7.0 10.0 0.00 0.24 0.24 97 1010.3
20260506153525 61 227 6.0 9.0 0.00 0.24 0.24 98 1009.6
20260506153023 61 193 5.0 9.0 0.00 0.24 0.24 98 1009.7
20260506152519 60 238 5.0 10.0 0.00 0.24 0.24 98 1009.5
20260506152018 60 218 8.0 9.0 0.00 0.24 0.24 98 1009.5
20260506151515 60 217 6.0 14.0 0.00 0.24 0.24 98 1009.4
20260506151012 60 137 6.0 14.0 0.00 0.24 0.24 98 1009.3
20260506150508 60 222 7.0 9.0 0.07 0.24 0.24 98 1009.5
20260506150006 60 203 5.0 8.0 0.07 0.24 0.24 99 1009.7
20260506145502 60 214 4.0 6.0 0.07 0.23 0.23 99 1009.9
20260506145000 60 230 5.0 7.0 0.12 0.23 0.23 98 1010.2
20260506144456 60 238 5.0 6.0 0.12 0.22 0.22 98 1010.7
20260506143954 60 253 9.0 11.0 0.19 0.21 0.21 98 1010.9
20260506143451 60 296 4.0 5.0 0.12 0.20 0.20 98 1011.1
20260506142949 60 226 5.0 8.0 0.05 0.18 0.18 98 1010.6
20260506142447 60 295 6.0 8.0 0.05 0.18 0.18 98 1010.4
20260506141944 60 280 2.0 2.0 0.07 0.17 0.17 98 1010.3
20260506141442 60 213 5.0 8.0 0.12 0.17 0.17 98 1010.3
20260506140941 60 256 4.0 5.0 0.12 0.16 0.16 98 1010.4
20260506140437 60 229 6.0 8.0 0.07 0.15 0.15 98 1010.1
20260506135934 60 201 6.0 9.0 0.00 0.14 0.14 97 1010.0
20260506135431 60 219 9.0 11.0 0.00 0.14 0.14 97 1009.9
20260506134927 60 241 5.0 7.0 0.05 0.14 0.14 97 1009.8
20260506134423 60 208 5.0 14.0 0.05 0.14 0.14 97 1009.8
20260506133921 60 215 5.0 10.0 0.00 0.13 0.13 97 1010.2
20260506133418 60 212 8.0 11.0 0.00 0.13 0.13 97 1010.2
20260506132914 60 197 5.0 8.0 0.07 0.13 0.13 97 1010.2
20260506132411 60 233 5.0 7.0 0.05 0.12 0.12 97 1010.1
20260506131909 60 287 3.0 8.0 0.05 0.12 0.12 97 1010.1
20260506131405 60 253 5.0 6.0 0.00 0.11 0.11 97 1010.4
20260506130902 60 179 4.0 8.0 0.07 0.11 0.11 97 1010.3
20260506130358 60 234 2.0 6.0 0.07 0.10 0.10 96 1010.4
20260506125857 60 241 6.0 8.0 0.12 0.09 0.09 96 1010.4
20260506125355 60 220 5.0 7.0 0.07 0.08 0.08 96 1010.3
20260506124853 60 346 2.0 7.0 0.05 0.07 0.07 96 1010.3
20260506124349 60 219 3.0 8.0 0.05 0.07 0.07 95 1010.3
20260506123847 60 212 5.0 11.0 0.07 0.06 0.06 95 1010.3
20260506123345 60 180 7.0 9.0 0.07 0.06 0.06 94 1010.4
20260506122842 61 176 6.0 7.0 0.05 0.05 0.05 94 1010.3
20260506122339 61 231 7.0 10.0 0.07 0.04 0.04 93 1010.4
20260506121837 61 218 5.0 8.0 0.12 0.04 0.04 92 1010.6
20260506121334 61 242 5.0 7.0 0.05 0.03 0.03 91 1010.6
20260506120831 62 240 5.0 9.0 0.07 0.02 0.02 90 1010.9
20260506120329 62 193 7.0 10.0 0.07 0.02 0.02 89 1011.0
20260506115826 62 238 4.0 9.0 0.00 0.01 0.01 89 1010.9
20260506115324 62 303 5.0 10.0 0.05 0.01 0.01 88 1010.9
20260506114822 63 235 9.0 11.0 0.05 0.01 0.01 87 1010.8
20260506114320 63 191 7.0 9.0 0.00 0.00 0.00 86 1011.0
20260506113818 63 216 5.0 7.0 0.00 0.00 0.00 85 1010.8
20260506113315 64 214 9.0 15.0 0.00 0.00 0.00 83 1010.4
20260506112811 64 246 6.0 11.0 0.00 0.00 0.00 83 1010.7
20260506112309 63 250 6.0 9.0 0.00 0.00 0.00 83 1010.4
20260506111806 63 154 3.0 9.0 0.00 0.00 0.00 84 1010.1
20260506111304 63 215 7.0 9.0 0.00 0.00 0.00 83 1009.9
20260506110801 64 199 8.0 11.0 0.00 0.00 0.00 82 1010.0
20260506110258 64 221 8.0 10.0 0.00 0.00 0.00 80 1010.1
20260506105755 64 156 9.0 14.0 0.00 0.00 0.00 79 1009.9
20260506105252 65 205 5.0 10.0 0.00 0.00 0.00 79 1009.6
20260506104749 64 220 9.0 13.0 0.00 0.00 0.00 78 1009.8
20260506104247 65 176 7.0 9.0 0.00 0.00 0.00 78 1009.7
20260506103744 65 161 7.0 13.0 0.00 0.00 0.00 77 1009.7
20260506103242 65 242 8.0 13.0 0.00 0.00 0.00 76 1009.4
20260506102739 65 225 4.0 9.0 0.00 0.00 0.00 77 1009.5
20260506102237 65 222 4.0 13.0 0.00 0.00 0.00 77 1009.5
20260506101733 65 270 5.0 10.0 0.00 0.00 0.00 76 1009.3
20260506101230 66 312 5.0 16.0 0.00 0.00 0.00 75 1009.3
20260506100728 66 212 7.0 14.0 0.00 0.00 0.00 75 1009.7
20260506100226 66 209 8.0 11.0 0.00 0.00 0.00 73 1009.4
20260506095724 66 209 4.0 11.0 0.00 0.00 0.00 72 1009.6
20260506095221 66 239 3.0 9.0 0.00 0.00 0.00 72 1009.3
20260506094718 66 198 7.0 13.0 0.00 0.00 0.00 72 1009.2
20260506094216 66 194 8.0 11.0 0.00 0.00 0.00 72 1009.5
20260506093715 66 186 6.0 10.0 0.00 0.00 0.00 72 1009.3
20260506093211 66 210 6.0 15.0 0.00 0.00 0.00 71 1009.2
20260506092709 66 198 4.0 9.0 0.00 0.00 0.00 71 1009.2
20260506092206 66 217 8.0 14.0 0.00 0.00 0.00 71 1009.3
20260506091704 67 251 5.0 13.0 0.00 0.00 0.00 71 1009.3
20260506091201 67 224 11.0 15.0 0.00 0.00 0.00 70 1009.4
20260506090658 67 275 6.0 13.0 0.00 0.00 0.00 70 1009.3
20260506090154 67 218 9.0 14.0 0.00 0.00 0.00 70 1009.6
20260506085652 67 161 5.0 11.0 0.00 0.00 0.00 70 1009.6
20260506085148 67 248 5.0 8.0 0.00 0.00 0.00 70 1009.6
20260506084645 67 211 5.0 11.0 0.00 0.00 0.00 70 1009.7
20260506084141 67 182 7.0 10.0 0.00 0.00 0.00 69 1009.5
20260506083638 67 223 7.0 11.0 0.00 0.00 0.00 69 1009.7
20260506083136 67 162 5.0 9.0 0.00 0.00 0.00 69 1009.8
20260506082633 67 222 7.0 13.0 0.00 0.00 0.00 68 1009.9
20260506082128 67 217 9.0 11.0 0.00 0.00 0.00 68 1009.7